INTELSAT 31 (IS-31)     
1 41581U 16035A   19266.31860552 -.00000161  00000-0  00000+0 0  9996
2 41581   0.0210 224.8615 0002033   6.0679 150.6015  1.00271098 12041
BREEZE-M R/B            
1 41582U 16035B   19266.42719335  .00000160  00000-0  00000+0 0  9999
2 41582  26.1262 234.1060 8022282  44.1911 356.9060  1.12670742 13509
BREEZE-M DEB [TANK]     
1 41583U 16035C   19263.99719840 -.00000040  00000-0  25453-4 0  9992
2 41583  50.7676 128.9607 5012106 214.4485  99.6086  5.49919688 65895